Montgomery, AL

5:02 AM CST on January 21, 2017 (GMT -0600)
Maxwell AFB

Weather History for KMXF - February, 2013

Change the Weather History Date:

Thursday, February 14, 2013

  Actual Average Record
Temperature  
Mean Temperature 45 °F -  
Max Temperature 56 °F 61 °F 78 °F (2001)
Min Temperature 34 °F 41 °F 25 °F (2008)
Degree Days  
Heating Degree Days 20    
Moisture  
Dew Point 34 °F    
Average Humidity 77    
Maximum Humidity 87    
Minimum Humidity 44    
Precipitation  
Precipitation 0.00 in - - ()
Sea Level Pressure  
Sea Level Pressure 30.09 in    
Wind  
Wind Speed 2 mph (SW)    
Max Wind Speed 5 mph    
Max Gust Speed -    
Visibility 6 miles    
Events      
Averages and records for this station are not official NWS values.
T = Trace of Precipitation, MM = Missing Value Source: NWS Daily Summary

Daily Weather History Graph

Daily Weather History Graph

Search for Another Location

Airport or City:

Trip Planner

Search our weather history database for the weather conditions in past years. The results will help you decide how hot, cold, wet, or windy it might be!

Date:

Astronomy

Feb. 14, 2013 Rise Set
Actual Time 6:28 AM CST 5:30 PM CST
Civil Twilight 6:03 AM CST 5:55 PM CST
Nautical Twilight 5:34 AM CST 6:24 PM CST
Astronomical Twilight 5:06 AM CST 6:53 PM CST
Moon 8:49 AM CST (2/14) 10:11 PM CST (2/14)
Length of Visible Light 11h 52m
Length of Day
11h 02m
Waxing Crescent, 22% of the Moon is Illuminated
Feb 14
Waxing Crescent
Feb 17
First Quarter
Feb 25
Full
Mar 4
Last Quarter
Mar 11
New

Hourly Weather History & Observations

Time (CST) Temp. Windchill Dew Point Humidity Pressure Visibility Wind Dir Wind Speed Gust Speed Precip Events Conditions
12:58 AM 39.4 °F 37.2 °F 34.3 °F 82% 30.07 in 10.0 mi WNW 3.5 mph - N/A   Clear
1:58 AM 38.1 °F - 33.3 °F 83% 30.06 in 10.0 mi NW 2.3 mph - N/A   Clear
2:58 AM 37.8 °F 35.3 °F 33.4 °F 84% 30.06 in 10.0 mi NW 3.5 mph - N/A   Clear
3:58 AM 36.0 °F - 32.2 °F 86% 30.07 in 5.0 mi West 1.2 mph - N/A   Clear
4:08 AM 35.6 °F - 32.0 °F 87% 30.07 in 2.5 mi SSW 2.3 mph - N/A   Clear
4:13 AM 35.6 °F - 32.0 °F 87% 30.08 in 1.5 mi SW 2.3 mph - N/A   Clear
4:23 AM 35.6 °F - 32.0 °F 87% 30.07 in 3.0 mi Calm Calm - N/A   Clear
4:33 AM 35.6 °F - 32.0 °F 87% 30.08 in 1.8 mi SW 1.2 mph - N/A   Clear
4:38 AM 35.6 °F - 32.0 °F 87% 30.09 in 2.5 mi SW 2.3 mph - N/A   Clear
4:43 AM 35.6 °F - 32.0 °F 87% 30.09 in 5.0 mi WSW 2.3 mph - N/A   Clear
4:58 AM 34.9 °F - 31.3 °F 87% 30.09 in 4.0 mi West 2.3 mph - N/A   Clear
5:58 AM 36.1 °F 32.3 °F 32.4 °F 86% 30.10 in 6.0 mi NW 4.6 mph - N/A   Clear
6:58 AM 36.9 °F 34.3 °F 33.1 °F 86% 30.10 in 9.0 mi WNW 3.5 mph - N/A   Clear
7:58 AM 37.9 °F - 33.8 °F 85% 30.14 in 8.0 mi SSW 1.2 mph - N/A   Clear
8:58 AM 41.4 °F 39.4 °F 35.1 °F 78% 30.16 in 10.0 mi SE 3.5 mph - N/A   Clear
9:58 AM 45.0 °F - 33.4 °F 64% 30.15 in 10.0 mi Variable 2.3 mph - N/A   Clear
10:58 AM 47.3 °F - 32.5 °F 57% 30.16 in 10.0 mi SE 4.6 mph - N/A   Clear
11:58 AM 49.3 °F - 32.9 °F 53% 30.14 in 10.0 mi Variable 3.5 mph - N/A   Clear
12:58 PM 52.2 °F - 34.3 °F 51% 30.11 in 10.0 mi SW 3.5 mph - N/A   Clear
1:58 PM 52.9 °F - 33.4 °F 48% 30.07 in 10.0 mi Variable 2.3 mph - N/A   Clear
2:58 PM 55.2 °F - 34.2 °F 45% 30.06 in 10.0 mi East 2.3 mph - N/A   Clear
3:58 PM 56.5 °F - 34.5 °F 44% 30.06 in 10.0 mi South 3.5 mph - N/A   Clear
4:58 PM 55.4 °F - 35.4 °F 47% 30.06 in 10.0 mi SSE 4.6 mph - N/A   Clear
5:58 PM 51.4 °F - 37.9 °F 60% 30.07 in 10.0 mi SW 2.3 mph - N/A   Clear
6:58 PM 47.7 °F - 37.6 °F 68% 30.08 in 10.0 mi SW 2.3 mph - N/A   Clear
7:58 PM 43.5 °F - 37.2 °F 78% 30.10 in 10.0 mi Calm Calm - N/A   Clear
8:58 PM 43.9 °F 41.3 °F 37.9 °F 80% 30.11 in 10.0 mi WSW 4.6 mph - N/A   Clear
9:58 PM 41.9 °F - 37.0 °F 83% 30.11 in 10.0 mi Calm Calm - N/A   Clear
10:53 PM 41.0 °F - 35.6 °F 81% 30.10 in 2.0 mi Calm Calm - N/A   Haze
10:58 PM 40.6 °F - 36.7 °F 86% 30.11 in 2.5 mi Calm Calm - N/A   Clear
11:03 PM 39.2 °F - 35.6 °F 87% 30.10 in 5.0 mi Calm Calm - N/A   Haze
11:28 PM 39.2 °F - 35.6 °F 87% 30.09 in 2.0 mi Calm Calm - N/A   Clear
11:33 PM 39.2 °F - 35.6 °F 87% 30.09 in 1.0 mi Calm Calm - N/A   Haze
11:38 PM 39.2 °F - 35.6 °F 87% 30.09 in 0.8 mi Calm Calm - N/A   Clear
11:43 PM 39.2 °F - 35.6 °F 87% 30.09 in 0.8 mi Calm Calm - N/A   Clear
11:48 PM 39.2 °F - 35.6 °F 87% 30.09 in 1.2 mi Calm Calm - N/A   Clear
11:53 PM 39.2 °F - 33.8 °F 81% 30.09 in 1.0 mi SSE 1.2 mph - N/A   Clear
11:58 PM 38.3 °F - 34.5 °F 86% 30.10 in 1.0 mi Calm Calm - N/A   Clear